| time (UTC) | temp F | wind direction | speed MPH | gust MPH | rain 1hr in | rain 24hr in | rain mn in | humidity % | barometer mb |
| 20260502234515 | 57 | 0.0 | 2.0 | 0.00 | 0.00 | 0.00 | 51 | 1012.2 | |
| 20260502233015 | 57 | 0.0 | 2.0 | 0.00 | 0.00 | 0.00 | 50 | 1012.0 | |
| 20260502231515 | 58 | 0.0 | 1.0 | 0.00 | 0.00 | 0.00 | 51 | 1011.9 | |
| 20260502230015 | 58 | 0.0 | 1.0 | 0.00 | 0.00 | 0.00 | 47 | 1011.7 | |
| 20260502224515 | 59 | 0.0 | 2.0 | 0.00 | 0.00 | 0.00 | 48 | 1011.5 | |
| 20260502223015 | 59 | 0 | 1.0 | 4.0 | 0.00 | 0.00 | 0.00 | 43 | 1011.6 |
| 20260502221517 | 60 | 315 | 1.0 | 3.0 | 0.00 | 0.00 | 0.00 | 43 | 1011.8 |
| 20260502220037 | 60 | 0 | 1.0 | 4.0 | 0.00 | 0.00 | 0.00 | 43 | 1011.9 |
| 20260502214517 | 60 | 0 | 1.0 | 5.0 | 0.00 | 0.00 | 0.00 | 43 | 1011.8 |
| 20260502213017 | 60 | 0 | 1.0 | 4.0 | 0.00 | 0.00 | 0.00 | 42 | 1011.8 |
| 20260502211517 | 59 | 0 | 1.0 | 3.0 | 0.00 | 0.00 | 0.00 | 43 | 1011.8 |
| 20260502210017 | 59 | 0 | 1.0 | 4.0 | 0.00 | 0.00 | 0.00 | 43 | 1011.7 |
| 20260502204537 | 60 | 0 | 1.0 | 3.0 | 0.00 | 0.00 | 0.00 | 43 | 1011.8 |
| 20260502203017 | 60 | 0 | 1.0 | 6.0 | 0.00 | 0.00 | 0.00 | 42 | 1011.9 |
| 20260502201517 | 61 | 0 | 1.0 | 3.0 | 0.00 | 0.00 | 0.00 | 43 | 1012.0 |
| 20260502200017 | 60 | 0 | 1.0 | 5.0 | 0.00 | 0.00 | 0.00 | 46 | 1011.9 |
| 20260502194517 | 60 | 0 | 2.0 | 8.0 | 0.00 | 0.00 | 0.00 | 43 | 1012.0 |
| 20260502193017 | 60 | 158 | 1.0 | 4.0 | 0.00 | 0.00 | 0.00 | 50 | 1012.2 |
| 20260502191516 | 60 | 338 | 1.0 | 4.0 | 0.00 | 0.00 | 0.00 | 43 | 1012.3 |
| 20260502190017 | 59 | 293 | 1.0 | 8.0 | 0.00 | 0.00 | 0.00 | 43 | 1012.6 |
| 20260502184517 | 60 | 113 | 1.0 | 4.0 | 0.00 | 0.00 | 0.00 | 44 | 1012.8 |
| 20260502183017 | 59 | 135 | 1.0 | 3.0 | 0.00 | 0.00 | 0.00 | 44 | 1013.0 |
| 20260502181517 | 59 | 180 | 1.0 | 3.0 | 0.00 | 0.00 | 0.00 | 45 | 1013.2 |
| 20260502163016 | 55 | 0 | 1.0 | 3.0 | 0.00 | 0.00 | 0.00 | 51 | 1014.5 |
| 20260502161516 | 55 | 0 | 1.0 | 2.0 | 0.00 | 0.00 | 0.00 | 53 | 1014.7 |
| 20260502151517 | 54 | 0 | 1.0 | 3.0 | 0.00 | 0.00 | 0.00 | 58 | 1014.9 |
| 20260502123016 | 51 | 0 | 1.0 | 4.0 | 0.00 | 0.00 | 0.00 | 69 | 1014.2 |
| 20260502121516 | 51 | 0 | 1.0 | 4.0 | 0.00 | 0.00 | 0.00 | 72 | 1014.0 |
| 20260502114516 | 50 | 0 | 1.0 | 4.0 | 0.00 | 0.00 | 0.00 | 76 | 1014.0 |
| 20260502113016 | 50 | 0.0 | 2.0 | 0.00 | 0.00 | 0.00 | 80 | 1014.0 | |
| 20260502111536 | 49 | 0.0 | 1.0 | 0.00 | 0.00 | 0.00 | 81 | 1014.0 | |
| 20260502110015 | 49 | 0.0 | 2.0 | 0.00 | 0.00 | 0.00 | 83 | 1014.1 | |
| 20260502104516 | 49 | 0.0 | 2.0 | 0.00 | 0.00 | 0.00 | 84 | 1013.9 | |
| 20260502103016 | 48 | 0.0 | 0.0 | 0.00 | 0.00 | 0.00 | 85 | 1013.7 | |
| 20260502101516 | 48 | 0.0 | 1.0 | 0.00 | 0.00 | 0.00 | 85 | 1013.5 | |
| 20260502091516 | 49 | 0.0 | 1.0 | 0.00 | 0.00 | 0.00 | 86 | 1013.1 | |
| 20260502071515 | 52 | 0.0 | 1.0 | 0.00 | 0.00 | 0.00 | 79 | 1012.4 | |
| 20260502070015 | 52 | 0.0 | 0.0 | 0.00 | 0.00 | 0.00 | 78 | 1012.6 | |
| 20260502064535 | 53 | 0.0 | 0.0 | 0.00 | 0.00 | 0.00 | 77 | 1012.7 | |
| 20260502063015 | 53 | 0.0 | 1.0 | 0.00 | 0.00 | 0.00 | 77 | 1012.6 | |
| 20260502061516 | 54 | 0.0 | 1.0 | 0.00 | 0.00 | 0.00 | 76 | 1012.7 | |
| 20260502060035 | 54 | 0.0 | 1.0 | 0.00 | 0.00 | 0.00 | 76 | 1013.0 | |
| 20260502054555 | 54 | 0.0 | 3.0 | 0.00 | 0.00 | 0.00 | 75 | 1013.3 | |
| 20260502053017 | 54 | 0.0 | 2.0 | 0.00 | 0.00 | 0.00 | 75 | 1012.9 | |
| 20260502051517 | 54 | 0.0 | 0.0 | 0.00 | 0.00 | 0.00 | 75 | 1012.7 | |
| 20260502050015 | 55 | 0.0 | 0.0 | 0.00 | 0.00 | 0.00 | 73 | 1012.7 | |
| 20260502044517 | 55 | 0.0 | 1.0 | 0.00 | 0.00 | 0.00 | 73 | 1012.7 | |
| 20260502043017 | 55 | 0.0 | 1.0 | 0.00 | 0.00 | 0.00 | 72 | 1012.9 | |
| 20260502041517 | 55 | 0.0 | 1.0 | 0.00 | 0.00 | 0.00 | 69 | 1012.8 | |
| 20260502040037 | 56 | 0.0 | 3.0 | 0.00 | 0.00 | 0.00 | 69 | 1012.8 | |
| 20260502034535 | 56 | 0.0 | 3.0 | 0.00 | 0.00 | 0.00 | 68 | 1012.7 | |
| 20260502033016 | 56 | 0.0 | 2.0 | 0.00 | 0.00 | 0.00 | 67 | 1012.6 | |
| 20260502031516 | 57 | 0.0 | 1.0 | 0.00 | 0.00 | 0.00 | 66 | 1012.4 | |
| 20260502030016 | 57 | 0.0 | 1.0 | 0.00 | 0.00 | 0.00 | 64 | 1012.4 | |
| 20260502024515 | 57 | 0 | 1.0 | 8.0 | 0.00 | 0.00 | 0.00 | 64 | 1012.3 |
| 20260502023035 | 57 | 0.0 | 1.0 | 0.00 | 0.00 | 0.00 | 62 | 1012.4 | |
| 20260502021515 | 57 | 0.0 | 4.0 | 0.00 | 0.00 | 0.00 | 59 | 1012.4 | |
| 20260502020015 | 58 | 0.0 | 1.0 | 0.00 | 0.00 | 0.00 | 57 | 1012.3 | |
| 20260502014515 | 58 | 0.0 | 1.0 | 0.00 | 0.00 | 0.00 | 56 | 1012.1 | |
| 20260502013016 | 59 | 0.0 | 4.0 | 0.00 | 0.00 | 0.00 | 55 | 1012.0 | |
| 20260502011515 | 59 | 0.0 | 3.0 | 0.00 | 0.00 | 0.00 | 52 | 1011.9 | |
| 20260502010015 | 60 | 0.0 | 1.0 | 0.00 | 0.00 | 0.00 | 51 | 1011.7 | |
| 20260502004615 | 61 | 0.0 | 1.0 | 0.00 | 0.00 | 0.00 | 50 | 1011.2 | |
| 20260502003015 | 61 | 0.0 | 2.0 | 0.00 | 0.00 | 0.00 | 50 | 1011.1 | |
| 20260502001515 | 62 | 0.0 | 2.0 | 0.00 | 0.00 | 0.00 | 48 | 1011.1 | |
| 20260502000015 | 63 | 0 | 1.0 | 6.0 | 0.00 | 0.00 | 0.00 | 46 | 1011.1 |